When you browse on this site, cookies collect data to enhance your experience and personalize the content and advertising you see.
Visit our Privacy Policy to learn more. By continuing to use the site, you agree to this use of cookies and data.
  • In Hungary
  • List of Countries
  • For 7 days
  • Water Temperature
  • Satellite Maps
  • Weather Map
  • News
  • Weather Widgets
  • user-avatar
    Login

    Hourly Weather Nova Londrina

    Today, 16 January, Wednesday

    Time Temperature Precipitation Wind Pressure Humidity
    00:00 +28°C° 0 mm 1 mps 731 mmHg 72%
    01:00 +28°C° 0 mm 1 mps 731 mmHg 73%
    02:00 +27°C° 0 mm 1 mps 731 mmHg 74%
    03:00 +27°C° 0 mm 1 mps 731 mmHg 75%
    04:00 +27°C° 0 mm 1 mps 731 mmHg 77%
    05:00 +26°C° 0 mm 1 mps 731 mmHg 78%
    06:00 +28°C° 0 mm 2 mps 732 mmHg 75%
    07:00 +29°C° 0 mm 2 mps 732 mmHg 71%
    08:00 +31°C° 0 mm 2 mps 732 mmHg 68%
    09:00 +32°C° 0 mm 2 mps 732 mmHg 62%
    10:00 +35°C° 0 mm 2 mps 732 mmHg 56%
    11:00 +36°C° 0 mm 3 mps 733 mmHg 51%
    12:00 +37°C° 0 mm 3 mps 732 mmHg 49%
    13:00 +37°C° 0 mm 3 mps 732 mmHg 46%
    14:00 +38°C° 0 mm 2 mps 731 mmHg 44%
    15:00 +37°C° 0 mm 2 mps 731 mmHg 48%
    16:00 +36°C° 0 mm 2 mps 730 mmHg 53%
    17:00 +36°C° 0 mm 2 mps 730 mmHg 57%
    18:00 +34°C° 0 mm 2 mps 730 mmHg 59%
    19:00 +32°C° 0 mm 2 mps 730 mmHg 60%
    20:00 +30°C° 0 mm 2 mps 730 mmHg 62%
    21:00 +29°C° 0 mm 2 mps 731 mmHg 64%
    22:00 +29°C° 0 mm 2 mps 731 mmHg 66%
    23:00 +28°C° 0 mm 2 mps 731 mmHg 68%

    Tomorrow, 17 January, Thursday

    Time Temperature Precipitation Wind Pressure Humidity
    00:00 +28°C° 0 mm 2 mps 731 mmHg 70%
    01:00 +28°C° 0 mm 2 mps 731 mmHg 71%
    02:00 +27°C° 0 mm 2 mps 730 mmHg 73%
    03:00 +27°C° 0 mm 2 mps 730 mmHg 74%
    04:00 +27°C° 0 mm 2 mps 730 mmHg 75%
    05:00 +26°C° 0 mm 2 mps 730 mmHg 76%
    06:00 +28°C° 0 mm 2 mps 731 mmHg 74%
    07:00 +30°C° 0 mm 3 mps 732 mmHg 71%
    08:00 +31°C° 0 mm 3 mps 732 mmHg 68%
    09:00 +34°C° 0 mm 3 mps 732 mmHg 62%
    10:00 +35°C° 0 mm 2 mps 732 mmHg 57%
    11:00 +37°C° 0 mm 2 mps 732 mmHg 51%
    12:00 +37°C° 0 mm 2 mps 731 mmHg 48%
    13:00 +37°C° 0 mm 1 mps 731 mmHg 45%
    14:00 +35°C° 0 mm 0 mps 730 mmHg 42%
    15:00 +35°C° 0 mm 0 mps 730 mmHg 46%
    16:00 +34°C° 0 mm 0 mps 729 mmHg 50%
    17:00 +33°C° 0 mm 0 mps 729 mmHg 54%
    18:00 +34°C° 0 mm 1 mps 729 mmHg 55%
    19:00 +33°C° 0 mm 1 mps 729 mmHg 56%
    20:00 +31°C° 0 mm 2 mps 729 mmHg 57%
    21:00 +31°C° 0 mm 2 mps 730 mmHg 59%
    22:00 +30°C° 0 mm 2 mps 730 mmHg 60%
    23:00 +30°C° 0 mm 2 mps 730 mmHg 62%

    Day after tomorrow, 18 January, Friday

    Time Temperature Precipitation Wind Pressure Humidity
    00:00 +29°C° 0 mm 2 mps 730 mmHg 64%
    01:00 +29°C° 0 mm 3 mps 729 mmHg 66%
    02:00 +28°C° 0 mm 3 mps 729 mmHg 68%
    03:00 +28°C° 0 mm 3 mps 729 mmHg 71%
    04:00 +28°C° 0 mm 3 mps 730 mmHg 74%
    05:00 +27°C° 0 mm 3 mps 730 mmHg 78%
    06:00 +28°C° 0 mm 3 mps 730 mmHg 76%
    07:00 +29°C° 0 mm 3 mps 730 mmHg 74%
    08:00 +30°C° 0 mm 3 mps 731 mmHg 72%
    09:00 +31°C° 0.6 mm 3 mps 731 mmHg 68%
    10:00 +34°C° 0.6 mm 4 mps 731 mmHg 65%
    11:00 +35°C° 0.6 mm 4 mps 731 mmHg 61%
    12:00 +36°C° 0.2 mm 3 mps 731 mmHg 56%
    13:00 +36°C° 0.2 mm 2 mps 730 mmHg 52%
    14:00 +37°C° 0.2 mm 2 mps 730 mmHg 47%
    15:00 +35°C° 0 mm 1 mps 729 mmHg 52%
    16:00 +35°C° 0 mm 1 mps 728 mmHg 56%
    17:00 +34°C° 0 mm 1 mps 728 mmHg 61%
    18:00 +33°C° 0 mm 1 mps 728 mmHg 64%
    19:00 +31°C° 0 mm 2 mps 729 mmHg 67%
    20:00 +29°C° 0 mm 2 mps 729 mmHg 70%
    21:00 +29°C° 1.5 mm 2 mps 729 mmHg 76%
    22:00 +28°C° 1.5 mm 2 mps 730 mmHg 81%
    23:00 +27°C° 1.5 mm 1 mps 730 mmHg 87%

    19 January, Saturday

    Time Temperature Precipitation Wind Pressure Humidity
    00:00 +27°C° 0.9 mm 2 mps 729 mmHg 88%
    01:00 +26°C° 0.9 mm 2 mps 729 mmHg 88%
    02:00 +26°C° 0.9 mm 3 mps 728 mmHg 89%
    03:00 +26°C° 0 mm 2 mps 728 mmHg 90%
    04:00 +26°C° 0 mm 1 mps 728 mmHg 91%
    05:00 +26°C° 0 mm 1 mps 728 mmHg 91%
    06:00 +27°C° 0 mm 1 mps 729 mmHg 88%
    07:00 +28°C° 0 mm 1 mps 730 mmHg 85%
    08:00 +29°C° 0 mm 1 mps 730 mmHg 81%
    09:00 +30°C° 1.8 mm 1 mps 730 mmHg 77%
    10:00 +31°C° 1.8 mm 1 mps 730 mmHg 72%
    11:00 +32°C° 1.8 mm 1 mps 730 mmHg 67%
    12:00 +32°C° 1.5 mm 2 mps 730 mmHg 66%
    13:00 +33°C° 1.5 mm 3 mps 729 mmHg 66%
    14:00 +34°C° 1.5 mm 4 mps 729 mmHg 65%
    15:00 +33°C° 0.1 mm 3 mps 728 mmHg 69%
    16:00 +31°C° 0.1 mm 2 mps 728 mmHg 72%
    17:00 +30°C° 0.1 mm 2 mps 728 mmHg 75%
    18:00 +30°C° 0 mm 1 mps 728 mmHg 76%
    19:00 +29°C° 0 mm 1 mps 728 mmHg 76%
    20:00 +26°C° 0 mm 0 mps 728 mmHg 77%
    21:00 +27°C° 0 mm 1 mps 728 mmHg 77%
    22:00 +27°C° 0 mm 1 mps 729 mmHg 77%
    23:00 +27°C° 0 mm 1 mps 729 mmHg 77%

    20 January, Sunday

    Time Temperature Precipitation Wind Pressure Humidity
    00:00 +27°C° 0 mm 1 mps 728 mmHg 78%
    01:00 +27°C° 0 mm 1 mps 728 mmHg 80%
    02:00 +26°C° 0 mm 1 mps 728 mmHg 81%
    03:00 +26°C° 0 mm 1 mps 728 mmHg 82%
    04:00 +24°C° 0 mm 0 mps 729 mmHg 84%
    05:00 +23°C° 0 mm 0 mps 729 mmHg 85%
    06:00 +27°C° 0 mm 1 mps 729 mmHg 81%
    07:00 +28°C° 0 mm 2 mps 730 mmHg 78%
    08:00 +29°C° 0 mm 3 mps 731 mmHg 74%
    09:00 +31°C° 0.1 mm 3 mps 730 mmHg 69%
    10:00 +33°C° 0.1 mm 3 mps 730 mmHg 65%
    11:00 +35°C° 0.1 mm 3 mps 730 mmHg 60%
    12:00 +35°C° 0.2 mm 3 mps 730 mmHg 58%
    13:00 +36°C° 0.2 mm 3 mps 729 mmHg 56%
    14:00 +36°C° 0.2 mm 2 mps 729 mmHg 54%
    15:00 +36°C° 0 mm 2 mps 728 mmHg 57%
    16:00 +34°C° 0 mm 1 mps 728 mmHg 60%
    17:00 +34°C° 0 mm 1 mps 728 mmHg 63%
    18:00 +32°C° 0.1 mm 1 mps 728 mmHg 65%
    19:00 +31°C° 0.1 mm 1 mps 728 mmHg 67%
    20:00 +30°C° 0.1 mm 1 mps 729 mmHg 70%
    21:00 +29°C° 0.5 mm 2 mps 729 mmHg 75%
    22:00 +28°C° 0.5 mm 2 mps 729 mmHg 81%
    23:00 +27°C° 0.5 mm 3 mps 729 mmHg 87%

    21 January, Monday

    Time Temperature Precipitation Wind Pressure Humidity
    00:00 +27°C° 0 mm 3 mps 729 mmHg 87%
    01:00 +26°C° 0 mm 2 mps 728 mmHg 87%
    02:00 +26°C° 0 mm 2 mps 728 mmHg 87%
    03:00 +26°C° 0 mm 2 mps 728 mmHg 88%
    04:00 +26°C° 0 mm 2 mps 728 mmHg 89%
    05:00 +26°C° 0 mm 2 mps 728 mmHg 89%
    06:00 +27°C° 0 mm 3 mps 729 mmHg 85%
    07:00 +29°C° 0 mm 3 mps 730 mmHg 81%
    08:00 +30°C° 0 mm 3 mps 730 mmHg 77%
    09:00 +33°C° 0.1 mm 3 mps 730 mmHg 69%
    10:00 +35°C° 0.1 mm 3 mps 730 mmHg 61%
    11:00 +37°C° 0.1 mm 4 mps 730 mmHg 54%
    12:00 +36°C° 0.1 mm 3 mps 729 mmHg 56%
    13:00 +36°C° 0.1 mm 3 mps 729 mmHg 59%
    14:00 +35°C° 0.1 mm 2 mps 728 mmHg 62%
    15:00 +35°C° 0 mm 2 mps 728 mmHg 63%
    16:00 +34°C° 0 mm 1 mps 728 mmHg 63%
    17:00 +34°C° 0 mm 1 mps 728 mmHg 64%
    18:00 +33°C° 0 mm 1 mps 728 mmHg 67%
    19:00 +31°C° 0 mm 1 mps 729 mmHg 69%
    20:00 +30°C° 0 mm 1 mps 729 mmHg 71%
    21:00 +29°C° 0 mm 2 mps 729 mmHg 74%
    22:00 +29°C° 0 mm 2 mps 729 mmHg 76%
    23:00 +28°C° 0 mm 2 mps 730 mmHg 78%
    Show more